Regional Weather Roundup
Issued by NWS Little Rock, AR

Home | Current Version | Previous Version | Graphics & Text | Print | Product List | Glossary On
Versions: 1 2 3 4 5 6 7 8 9 10 11 12 13 14 15 16 17 18 19 20 21 22 23 24 25 26 27 28 29 30 31 32
000
ASUS44 KLZK 221212
RWRLZK

WEATHER ROUNDUP FOR ARKANSAS
NATIONAL WEATHER SERVICE LITTLE ROCK AR
700 AM CDT MON MAY 22 2017

NOTE: "FAIR" INDICATES FEW OR NO CLOUDS BELOW 12,000 FEET WITH NO
SIGNIFICANT WEATHER AND/OR OBSTRUCTIONS TO VISIBILITY.

ARZ001-003-010-029-221300-
NORTHWEST ARKANSAS

CITY           SKY/WX    TMP DP  RH WIND       PRES   REMARKS
FAYETTEVILLE   CLOUDY    50  50 100 SE3       30.16R
6HR MIN TEMP:  49; 6HR MAX TEMP:  52;

FORT SMITH     CLOUDY    58  54  86 E3        30.14R
6HR MIN TEMP:  57; 6HR MAX TEMP:  63;

HARRISON       CLOUDY    51  50  96 S3        30.16R
6HR MIN TEMP:  51; 6HR MAX TEMP:  54;

BENTONVILLE    CLOUDY    54  48  82 CALM      30.16R
6HR MIN TEMP:  54; 6HR MAX TEMP:  57;

ROGERS         PTCLDY    54  51  90 CALM      30.17R
6HR MIN TEMP:  52; 6HR MAX TEMP:  56; 6HR PCP:  0.04;

SILOAM SPGS    CLOUDY    52  46  82 SE3       30.15S
6HR MIN TEMP:  52; 6HR MAX TEMP:  55;

HIGHFILL       CLOUDY    53  51  93 CALM      30.16R
6HR MIN TEMP:  51; 6HR MAX TEMP:  57;

SPRINGDALE     MOCLDY    52  52 100 CALM      30.18R
$$

ARZ004-005-016-221300-
NORTH CENTRAL ARKANSAS

CITY           SKY/WX    TMP DP  RH WIND       PRES   REMARKS
BATESVILLE     CLOUDY    54  52  94 CALM      30.15S
6HR MIN TEMP:  54; 6HR MAX TEMP:  55;

FLIPPIN        CLOUDY    52  46  82 CALM      30.13S
6HR MIN TEMP:  52; 6HR MAX TEMP:  55;

MTN HOME       CLOUDY    52  50  93 CALM      30.15R
6HR MIN TEMP:  51; 6HR MAX TEMP:  55;

$$

ARZ040-041-221300-
WEST CENTRAL ARKANSAS

CITY           SKY/WX    TMP DP  RH WIND       PRES   REMARKS
MENA           CLOUDY    55  55 100 CALM      30.15S
MOUNT IDA      MOCLDY    57  55  93 CALM      30.13R
6HR MIN TEMP:  56; 6HR MAX TEMP:  58;

$$

ARZ009-017-025-026-028-221300-
NORTHEAST ARKANSAS

CITY           SKY/WX    TMP DP  RH WIND       PRES   REMARKS
CORNING        FAIR      57  55  94 CALM      30.16S
JONESBORO      CLOUDY    58  50  75 NE6       30.13F
6HR MIN TEMP:  55; 6HR MAX TEMP:  63;

NEWPORT        CLOUDY    59  54  83 NE5       30.15R
6HR MIN TEMP:  56; 6HR MAX TEMP:  60;

WALNUT RIDGE   CLOUDY    57  50  77 CALM      30.15S
6HR MIN TEMP:  57; 6HR MAX TEMP:  59;

BLYTHEVILLE    PTSUNNY   61  53  75 E5        30.15R
6HR MIN TEMP:  56; 6HR MAX TEMP:  61;

$$

ARZ022-023-033-042-044-221300-
CENTRAL ARKANSAS

CITY           SKY/WX    TMP DP  RH WIND       PRES   REMARKS
LITTLE ROCK    CLOUDY    61  51  70 CALM      30.15R
6HR MIN TEMP:  58; 6HR MAX TEMP:  62;

N LITTLE ROCK    N/A     60  50  69 NE3       30.16R
6HR MIN TEMP:  59; 6HR MAX TEMP:  63;

JACKSONVILLE   CLOUDY    58  55  90 CALM      30.14R
6HR MIN TEMP:  57; 6HR MAX TEMP:  59;

CONWAY           N/A     61  57  88 CALM      30.15R
SEARCY         CLOUDY    57  54  89 CALM      30.16R
6HR MIN TEMP:  56; 6HR MAX TEMP:  59;

HOT SPRINGS    CLOUDY    59  55  87 SE3       30.14R
6HR MIN TEMP:  59; 6HR MAX TEMP:  62;

RUSSELLVILLE   CLOUDY    55  54  96 CALM      30.16R
6HR MIN TEMP:  55; 6HR MAX TEMP:  58;

CLINTON        FOG       52  52 100 CALM      30.17R VSB 3/4
$$

ARZ036-221300-
EAST ARKANSAS

CITY           SKY/WX    TMP DP  RH WIND       PRES   REMARKS
WEST MEMPHIS   CLOUDY    62  52  69 NE10      30.12S
6HR MIN TEMP:  59; 6HR MAX TEMP:  62;

$$

ARZ050-053-066-070-073-221300-
SOUTHWEST ARKANSAS

CITY           SKY/WX    TMP DP  RH WIND       PRES   REMARKS
ARKADELPHIA    FAIR      60  58  92 N3        30.14S
6HR MIN TEMP:  60; 6HR MAX TEMP:  63;

CAMDEN         CLOUDY    59  55  88 CALM      30.15R
TEXARKANA      LGT RAIN  62  62 100 CALM      30.11S
6HR MIN TEMP:  62; 6HR MAX TEMP:  65; 6HR PCP:  0.08;

DE QUEEN       MOCLDY    60  57  89 CALM      30.11R
6HR MIN TEMP:  59; 6HR MAX TEMP:  63;

$$

ARZ056-057-069-221300-
SOUTHEAST ARKANSAS

CITY           SKY/WX    TMP DP  RH WIND       PRES   REMARKS
PINE BLUFF     PTSUNNY   60  57  89 CALM      30.14R
6HR MIN TEMP:  58; 6HR MAX TEMP:  62;

STUTTGART      CLOUDY    64  45  48 E8        30.15R
6HR MIN TEMP:  61; 6HR MAX TEMP:  64;

MONTICELLO     CLOUDY    62  56  80 CALM      30.13R
6HR MIN TEMP:  59; 6HR MAX TEMP:  63;


$$






USA.gov is the U.S. government's official web portal to all federal, state and local government web resources and services.